Longville, MN

5:30 AM CST on December 06, 2016 (GMT -0600)
Longville Municipal

Weather History for KXVG - January, 2014

Change the Weather History Date:

Saturday, January 25, 2014

  Actual Average (KPWC) Record (KPWC)
Temperature  
Mean Temperature -2 °F -  
Max Temperature 3 °F 19 °F 48 °F (2002)
Min Temperature -7 °F 1 °F -23 °F (2009)
Degree Days  
Heating Degree Days 67    
Moisture  
Dew Point -12 °F    
Average Humidity 60    
Maximum Humidity 85    
Minimum Humidity 39    
Precipitation  
Precipitation 0.00 in - - ()
Sea Level Pressure  
Sea Level Pressure 29.71 in    
Wind  
Wind Speed 9 mph (WNW)    
Max Wind Speed 14 mph    
Max Gust Speed 26 mph    
Visibility 9 miles    
Events Snow    
Averages and records for this station are not official NWS values.
T = Trace of Precipitation, MM = Missing Value Source: NWS Daily Summary

Daily Weather History Graph

Daily Weather History Graph

Search for Another Location

Airport or City:

Trip Planner

Search our weather history database for the weather conditions in past years. The results will help you decide how hot, cold, wet, or windy it might be!

Date:

Astronomy

Jan. 25, 2014 Rise Set
Actual Time 7:49 AM CST 5:09 PM CST
Civil Twilight 7:16 AM CST 5:42 PM CST
Nautical Twilight 6:39 AM CST 6:19 PM CST
Astronomical Twilight 6:03 AM CST 6:55 PM CST
Moon 2:20 AM CST (1/25) 12:10 PM CST (1/25)
Length of Visible Light 10h 25m
Length of Day
9h 19m
Waning Crescent, 34% of the Moon is Illuminated
Jan 25
Waning Crescent
Jan 30
New
Feb 6
First Quarter
Feb 14
Full
Feb 22
Last Quarter

Hourly Weather History & Observations

Time (CST) Temp. Windchill Dew Point Humidity Pressure Visibility Wind Dir Wind Speed Gust Speed Precip Events Conditions
12:16 AM 3.2 °F -14.6 °F -7.6 °F 61% 29.63 in 10.0 mi NW 13.8 mph 19.6 mph N/A   Clear
12:36 AM 3.2 °F -13.9 °F -7.6 °F 61% 29.65 in 10.0 mi NW 12.7 mph 21.9 mph N/A   Clear
12:56 AM 3.2 °F -13.9 °F -7.6 °F 61% 29.65 in 1.0 mi WNW 12.7 mph 19.6 mph N/A   Clear
1:16 AM 1.4 °F -12.5 °F -9.4 °F 61% 29.66 in 10.0 mi NW 8.1 mph 20.7 mph N/A   Clear
1:36 AM 1.4 °F -15.3 °F -9.4 °F 61% 29.66 in 10.0 mi NW 11.5 mph 20.7 mph N/A   Clear
1:56 AM 1.4 °F -14.5 °F -9.4 °F 61% 29.67 in 10.0 mi NW 10.4 mph 19.6 mph N/A   Clear
2:16 AM 1.4 °F -15.3 °F -11.2 °F 56% 29.68 in 10.0 mi NW 11.5 mph 20.7 mph N/A   Clear
2:36 AM -0.4 °F -17.6 °F -9.4 °F 66% 29.69 in 10.0 mi NW 11.5 mph 26.5 mph N/A   Clear
2:56 AM -0.4 °F -16.7 °F -9.4 °F 66% 29.70 in 10.0 mi WNW 10.4 mph 19.6 mph N/A   Clear
3:16 AM -0.4 °F -12.0 °F -9.4 °F 66% 29.71 in 10.0 mi NW 5.8 mph 19.6 mph N/A   Clear
3:36 AM -2.2 °F -16.8 °F -9.4 °F 71% 29.71 in 10.0 mi NW 8.1 mph 18.4 mph N/A   Clear
3:56 AM -2.2 °F -18.9 °F -9.4 °F 71% 29.72 in 10.0 mi NW 10.4 mph 23.0 mph N/A   Clear
4:16 AM -2.2 °F -18.9 °F -11.2 °F 66% 29.72 in 10.0 mi NW 10.4 mph 21.9 mph N/A   Clear
4:36 AM -2.2 °F -19.9 °F -11.2 °F 66% 29.73 in 10.0 mi WNW 11.5 mph 20.7 mph N/A   Clear
4:56 AM -2.2 °F -18.0 °F -11.2 °F 66% 29.74 in 10.0 mi NW 9.2 mph 17.3 mph N/A   Clear
5:16 AM -2.2 °F -19.9 °F -11.2 °F 66% 29.75 in 10.0 mi WNW 11.5 mph 20.7 mph N/A   Clear
5:36 AM -4.0 °F -23.7 °F -11.2 °F 71% 29.75 in 10.0 mi NW 13.8 mph 25.3 mph N/A   Clear
5:56 AM -5.8 °F -24.4 °F -11.2 °F 77% 29.76 in 10.0 mi WNW 11.5 mph 23.0 mph N/A   Clear
6:16 AM -5.8 °F -24.4 °F -11.2 °F 77% 29.77 in 10.0 mi NW 11.5 mph 20.7 mph N/A   Clear
6:36 AM -5.8 °F -24.4 °F -13.0 °F 71% 29.78 in 10.0 mi NW 11.5 mph 18.4 mph N/A   Clear
6:56 AM -5.8 °F -24.4 °F -13.0 °F 71% 29.79 in 10.0 mi NW 11.5 mph 19.6 mph N/A   Clear
7:16 AM -5.8 °F -24.4 °F -14.8 °F 65% 29.80 in 10.0 mi NW 11.5 mph 19.6 mph N/A   Clear
7:36 AM -5.8 °F -22.4 °F -14.8 °F 65% 29.80 in 10.0 mi NW 9.2 mph 16.1 mph N/A   Clear
7:56 AM -5.8 °F -21.2 °F -14.8 °F 65% 29.81 in 10.0 mi NW 8.1 mph 17.3 mph N/A   Clear
8:16 AM -7.6 °F -25.7 °F -14.8 °F 71% 29.81 in 10.0 mi NW 10.4 mph 16.1 mph N/A   Clear
8:36 AM -7.6 °F -24.6 °F -14.8 °F 71% 29.82 in 10.0 mi NW 9.2 mph 16.1 mph N/A   Clear
8:56 AM -5.8 °F -21.2 °F -14.8 °F 65% 29.82 in 10.0 mi NW 8.1 mph 18.4 mph N/A   Clear
9:16 AM -5.8 °F -21.2 °F -14.8 °F 65% 29.82 in 10.0 mi NW 8.1 mph 19.6 mph N/A   Clear
9:36 AM -4.0 °F -19.0 °F -14.8 °F 60% 29.83 in 10.0 mi NW 8.1 mph 18.4 mph N/A   Clear
9:56 AM -4.0 °F -22.1 °F -14.8 °F 60% 29.83 in 10.0 mi WNW 11.5 mph 18.4 mph N/A   Clear
10:16 AM -4.0 °F -20.2 °F -14.8 °F 60% 29.84 in 10.0 mi WNW 9.2 mph 17.3 mph N/A   Clear
10:36 AM -2.2 °F -19.9 °F -14.8 °F 55% 29.84 in 10.0 mi WNW 11.5 mph 19.6 mph N/A   Clear
10:56 AM -2.2 °F -19.9 °F -14.8 °F 55% 29.84 in 10.0 mi NW 11.5 mph 17.3 mph N/A   Clear
11:16 AM -2.2 °F -15.6 °F -14.8 °F 55% 29.84 in 10.0 mi NW 6.9 mph 20.7 mph N/A   Clear
11:36 AM -2.2 °F -20.7 °F -14.8 °F 55% 29.84 in 10.0 mi WNW 12.7 mph 21.9 mph N/A   Clear
11:56 AM -0.4 °F -16.7 °F -14.8 °F 51% 29.83 in 10.0 mi NW 10.4 mph 18.4 mph N/A   Clear
12:16 PM -0.4 °F -16.7 °F -16.6 °F 46% 29.82 in 10.0 mi WNW 10.4 mph 16.1 mph N/A   Clear
12:36 PM 1.4 °F -14.5 °F -16.6 °F 43% 29.82 in 10.0 mi WNW 10.4 mph 18.4 mph N/A   Clear
12:56 PM 1.4 °F -16.1 °F -16.6 °F 43% 29.80 in 10.0 mi NW 12.7 mph 19.6 mph N/A   Clear
1:16 PM 1.4 °F -13.5 °F -16.6 °F 43% 29.79 in 10.0 mi WNW 9.2 mph - N/A   Clear
1:36 PM 1.4 °F -16.1 °F -16.6 °F 43% 29.78 in 10.0 mi WNW 12.7 mph 18.4 mph N/A   Clear
1:56 PM 1.4 °F -15.3 °F -18.4 °F 39% 29.78 in 10.0 mi WNW 11.5 mph 19.6 mph N/A   Clear
2:16 PM 1.4 °F -12.5 °F -18.4 °F 39% 29.77 in 10.0 mi WNW 8.1 mph - N/A   Clear
2:36 PM 1.4 °F -14.5 °F -18.4 °F 39% 29.77 in 7.0 mi WNW 10.4 mph 16.1 mph N/A   Clear
2:56 PM 1.4 °F -15.3 °F -18.4 °F 39% 29.76 in 10.0 mi WNW 11.5 mph 17.3 mph N/A   Clear
3:16 PM 1.4 °F -14.5 °F -18.4 °F 39% 29.76 in 10.0 mi West 10.4 mph - N/A   Clear
3:36 PM 1.4 °F -8.3 °F -18.4 °F 39% 29.75 in 10.0 mi NNW 4.6 mph - N/A   Clear
3:56 PM 1.4 °F -6.2 °F -16.6 °F 43% 29.74 in 10.0 mi WNW 3.5 mph - N/A   Clear
4:16 PM 1.4 °F -8.3 °F -18.4 °F 39% 29.73 in 10.0 mi NW 4.6 mph - N/A   Clear
4:36 PM 1.4 °F -6.2 °F -18.4 °F 39% 29.71 in 10.0 mi NNW 3.5 mph - N/A   Clear
4:56 PM -0.4 °F - -18.4 °F 43% 29.71 in 10.0 mi Calm Calm - N/A   Clear
5:16 PM -0.4 °F -8.3 °F -16.6 °F 46% 29.70 in 10.0 mi WNW 3.5 mph - N/A   Scattered Clouds
5:36 PM -0.4 °F - -16.6 °F 46% 29.68 in 10.0 mi Calm Calm - N/A   Mostly Cloudy
5:56 PM -0.4 °F - -14.8 °F 51% 29.66 in 10.0 mi Calm Calm - N/A   Mostly Cloudy
6:16 PM -0.4 °F - -13.0 °F 55% 29.66 in 10.0 mi Calm Calm - N/A   Mostly Cloudy
6:36 PM 1.4 °F - -11.2 °F 56% 29.64 in 10.0 mi Calm Calm - N/A   Overcast
6:56 PM 1.4 °F -8.3 °F -13.0 °F 51% 29.63 in 10.0 mi South 4.6 mph - N/A   Overcast
7:16 PM 1.4 °F -8.3 °F -13.0 °F 51% 29.63 in 10.0 mi SW 4.6 mph - N/A   Overcast
7:36 PM 1.4 °F -8.3 °F -13.0 °F 51% 29.62 in 10.0 mi SW 4.6 mph - N/A   Overcast
7:56 PM 1.4 °F - -11.2 °F 56% 29.59 in 7.0 mi Calm Calm - N/A   Overcast
8:16 PM 1.4 °F -6.2 °F -9.4 °F 61% 29.58 in 5.0 mi South 3.5 mph - N/A Snow Light Snow
8:36 PM 1.4 °F -8.3 °F -9.4 °F 61% 29.59 in 5.0 mi SSW 4.6 mph - N/A Snow Light Snow
8:56 PM 1.4 °F -9.9 °F -7.6 °F 66% 29.58 in 5.0 mi South 5.8 mph - N/A Snow Light Snow
9:16 PM -0.4 °F -10.4 °F -7.6 °F 72% 29.56 in 1.8 mi SSW 4.6 mph - N/A Snow Light Snow
9:36 PM -0.4 °F -8.3 °F -5.8 °F 78% 29.54 in 1.8 mi SSW 3.5 mph - N/A Snow Light Snow
9:56 PM -0.4 °F -8.3 °F -5.8 °F 78% 29.54 in 2.0 mi South 3.5 mph - N/A Snow Light Snow
10:16 PM -0.4 °F -8.3 °F -5.8 °F 78% 29.52 in 1.8 mi South 3.5 mph - N/A Snow Light Snow
10:36 PM -0.4 °F - -5.8 °F 78% 29.52 in 1.5 mi Calm Calm - N/A Snow Light Snow
10:56 PM -0.4 °F - -4.0 °F 85% 29.51 in 1.5 mi Calm Calm - N/A Snow Light Snow
11:16 PM -0.4 °F - -5.8 °F 78% 29.49 in 1.5 mi Calm Calm - N/A Snow Light Snow
11:36 PM -0.4 °F - -5.8 °F 78% 29.48 in 2.0 mi Calm Calm - N/A Snow Light Snow
11:56 PM -0.4 °F - -4.0 °F 85% 29.47 in 2.5 mi Calm Calm - N/A Snow Light Snow